Content
SEND FEEDBACK

Daily
Averages
Monthly
Summary
Mexico

PUERTO MORELOS, QUINTANA ROO


Home > North America > Mexico > Quintana Roo
Elevation: 20 feet     Latitude: 20 51N     Longitude: 086 52W

WEATHER
 
SELECT A DAY
Number of Records: 163,654;   Date Range: 1/1/95 - 7/20/14
 
SHARE

PRINT THIS DATA

[ ← Previous Day ]
WEATHER ALMANAC - JANUARY 31, 2013
[ Next Day → ]
[ °C ]   °F
Weather ElementAverageHighLow
Temperature72.9 °F77 °F (9:44 am)69.8 °F (5:40 am)
Dewpoint70.3 °F71.6 °F (1:43 am)69.8 °F (4:45 am)
Humidity91.5 %100 % (3:40 am)78 % (9:44 am)
Barometer30.08 in30.15 in (9:48 pm)29.97 in (1:43 am)
Wind Speed6.3 mph10.4 mph (7:41 am)
Weather ElementAverage
Visibility6.4 mi
Wind DirectionSSE (166.3 °)

Weather ElementTotal
Precipitation---
Cooling Degree Days8.4 (Base 65)
Growing Degree Days23.4 (Base 50)
Averaged from 24 records on January 31, 2013
WEATHER CONDITIONS BREAKOUT
WIND DIRECTION BREAKOUT
WEATHER BY HOUR - JANUARY 31, 2013
[ °C ]   °F
Local TimeTemperatureDewpointHumidityBarometerVisibilityWind DirectionWind SpeedGust SpeedPrecipitationEventsConditions
1:43 AM73.4 °F71.6 °F94 %29.97 in7.0 miSSE (150°)4.6 mphClear
2:42 AM73.4 °F71.6 °F94 %29.99 in7.0 miSSE (160°)2.3 mphClear
3:40 AM71.6 °F71.6 °F100 %30.00 in7.0 miWNW (300°)9.2 mphMostly Cloudy
4:45 AM71.6 °F69.8 °F94 %30.01 in7.0 miWNW (300°)6.9 mphMostly Cloudy
5:40 AM69.8 °F69.8 °F100 %30.03 in7.0 miNW (320°)4.6 mphScattered Clouds
6:41 AM71.6 °F69.8 °F94 %30.05 in7.0 miNNW (330°)4.6 mphScattered Clouds
7:41 AM73.4 °F71.6 °F94 %30.07 in7.0 miNNW (340°)10.4 mphScattered Clouds
8:43 AM75.2 °F69.8 °F83 %30.10 in7.0 miNorth (360°)9.2 mphMostly Cloudy
9:44 AM77.0 °F69.8 °F78 %30.11 in7.0 miNorth (10°)9.2 mphMostly Cloudy
10:42 AM77.0 °F69.8 °F78 %30.11 in6.0 miNNE (20°)10.4 mphOvercast
10:59 AM73.4 °F71.6 °F94 %30.11 in4.0 miENE (60°)8.1 mphRainRain
11:44 AM73.4 °F69.8 °F88 %30.10 in7.0 miNNE (30°)9.2 mphOvercast
12:45 PM73.4 °F69.8 °F88 %30.09 in4.0 miNorth (360°)8.1 mphRainLight Rain
1:46 PM73.4 °F71.6 °F94 %30.09 in5.0 miNNW (340°)4.6 mphOvercast
2:50 PM75.2 °F69.8 °F83 %30.09 in6.0 miNorth (10°)6.9 mphOvercast
3:46 PM73.4 °F69.8 °F88 %30.08 in6.0 miNE (40°)6.9 mphRainLight Rain
4:42 PM71.6 °F69.8 °F94 %30.09 in6.0 miNE (50°)3.5 mphRainLight Rain
5:55 PM71.6 °F69.8 °F94 %30.08 in6.0 miNorth (10°)6.9 mphOvercast
6:46 PM71.6 °F69.8 °F94 %30.11 in7.0 miNNE (30°)3.5 mphOvercast
7:45 PM71.6 °F69.8 °F94 %30.12 in7.0 miNorth (10°)4.6 mphMostly Cloudy
8:41 PM71.6 °F69.8 °F94 %30.12 in7.0 miCalmMostly Cloudy
9:48 PM71.6 °F69.8 °F94 %30.15 in7.0 miNorth (350°)5.8 mphMostly Cloudy
10:47 PM71.6 °F69.8 °F94 %30.14 in7.0 miNorth (360°)5.8 mphMostly Cloudy
11:47 PM71.6 °F69.8 °F94 %30.12 in6.0 miNE (50°)5.8 mphRainLight Rain
Hourly data recorded from MMUN, located miles away from Puerto Morelos, Quintana Roo







STORIES FROM OUR PARTNERS